When you browse on this site, cookies collect data to enhance your experience and personalize the content and advertising you see.
Visit our Privacy Policy to learn more. By continuing to use the site, you agree to this use of cookies and data.
  • En España
  • Lista de países
  • Para 7 días
  • Temperatura del agua
  • Mapa Satelital
  • El tiempo en el mapa
  • Informadores
  • user-avatar
    Iniciar sesión

    Tiempo cada hora Bangalore

    Hoy, 21 Abril, Domingo

    Tiempo Temperatura Precipitaciones Viento Presión Humedad
    00:00 +28°C° 0 mm 6 mps 682 mmHg 57%
    01:00 +28°C° 0 mm 5 mps 682 mmHg 58%
    02:00 +27°C° 0 mm 4 mps 681 mmHg 58%
    03:00 +27°C° 0 mm 4 mps 681 mmHg 62%
    04:00 +27°C° 0 mm 3 mps 681 mmHg 65%
    05:00 +26°C° 0 mm 3 mps 681 mmHg 68%
    06:00 +27°C° 0 mm 3 mps 682 mmHg 64%
    07:00 +28°C° 0 mm 3 mps 682 mmHg 60%
    08:00 +29°C° 0 mm 3 mps 683 mmHg 56%
    09:00 +30°C° 0 mm 2 mps 683 mmHg 50%
    10:00 +32°C° 0 mm 2 mps 683 mmHg 43%
    11:00 +34°C° 0 mm 2 mps 683 mmHg 37%
    12:00 +35°C° 0 mm 2 mps 683 mmHg 35%
    13:00 +35°C° 0 mm 2 mps 682 mmHg 32%
    14:00 +35°C° 0 mm 1 mps 681 mmHg 30%
    15:00 +35°C° 0 mm 1 mps 681 mmHg 30%
    16:00 +34°C° 0 mm 1 mps 681 mmHg 31%
    17:00 +34°C° 0 mm 1 mps 681 mmHg 32%
    18:00 +33°C° 0.1 mm 1 mps 681 mmHg 35%
    19:00 +33°C° 0.1 mm 1 mps 681 mmHg 37%
    20:00 +32°C° 0.1 mm 1 mps 682 mmHg 39%
    21:00 +31°C° 0 mm 2 mps 682 mmHg 42%
    22:00 +31°C° 0 mm 2 mps 682 mmHg 44%
    23:00 +30°C° 0 mm 2 mps 682 mmHg 47%

    Mañana, 22 Abril, Lunes

    Tiempo Temperatura Precipitaciones Viento Presión Humedad
    00:00 +29°C° 0 mm 2 mps 682 mmHg 50%
    01:00 +29°C° 0 mm 2 mps 681 mmHg 53%
    02:00 +28°C° 0 mm 2 mps 681 mmHg 56%
    03:00 +28°C° 0 mm 2 mps 681 mmHg 58%
    04:00 +27°C° 0 mm 2 mps 681 mmHg 61%
    05:00 +27°C° 0 mm 2 mps 681 mmHg 63%
    06:00 +28°C° 0 mm 3 mps 682 mmHg 60%
    07:00 +29°C° 0 mm 3 mps 682 mmHg 57%
    08:00 +30°C° 0 mm 3 mps 683 mmHg 54%
    09:00 +31°C° 0 mm 3 mps 683 mmHg 47%
    10:00 +34°C° 0 mm 3 mps 683 mmHg 41%
    11:00 +35°C° 0 mm 3 mps 684 mmHg 34%
    12:00 +35°C° 0 mm 3 mps 683 mmHg 32%
    13:00 +36°C° 0 mm 3 mps 682 mmHg 30%
    14:00 +36°C° 0 mm 2 mps 681 mmHg 28%
    15:00 +36°C° 0 mm 2 mps 681 mmHg 28%
    16:00 +36°C° 0 mm 2 mps 681 mmHg 27%
    17:00 +36°C° 0 mm 2 mps 681 mmHg 27%
    18:00 +35°C° 0 mm 3 mps 681 mmHg 31%
    19:00 +34°C° 0 mm 3 mps 682 mmHg 35%
    20:00 +33°C° 0 mm 4 mps 682 mmHg 39%
    21:00 +32°C° 0 mm 4 mps 682 mmHg 42%
    22:00 +30°C° 0 mm 4 mps 683 mmHg 45%
    23:00 +29°C° 0 mm 4 mps 683 mmHg 48%

    Pasado mañana, 23 Abril, Martes

    Tiempo Temperatura Precipitaciones Viento Presión Humedad
    00:00 +29°C° 0.6 mm 4 mps 682 mmHg 54%
    01:00 +28°C° 0.6 mm 3 mps 682 mmHg 59%
    02:00 +27°C° 0.6 mm 2 mps 681 mmHg 65%
    03:00 +27°C° 0.3 mm 2 mps 681 mmHg 66%
    04:00 +26°C° 0.3 mm 2 mps 682 mmHg 67%
    05:00 +26°C° 0.3 mm 2 mps 682 mmHg 68%
    06:00 +27°C° 0 mm 1 mps 683 mmHg 64%
    07:00 +28°C° 0 mm 1 mps 683 mmHg 59%
    08:00 +29°C° 0 mm 1 mps 684 mmHg 55%
    09:00 +31°C° 0 mm 2 mps 684 mmHg 47%
    10:00 +32°C° 0 mm 2 mps 684 mmHg 38%
    11:00 +35°C° 0 mm 3 mps 684 mmHg 30%
    12:00 +35°C° 0 mm 3 mps 683 mmHg 28%
    13:00 +36°C° 0 mm 3 mps 683 mmHg 25%
    14:00 +37°C° 0 mm 4 mps 682 mmHg 23%
    15:00 +36°C° 0 mm 4 mps 682 mmHg 25%
    16:00 +35°C° 0 mm 3 mps 682 mmHg 27%
    17:00 +35°C° 0 mm 3 mps 682 mmHg 29%
    18:00 +34°C° 0 mm 3 mps 682 mmHg 31%
    19:00 +34°C° 0 mm 3 mps 683 mmHg 33%
    20:00 +33°C° 0 mm 3 mps 684 mmHg 35%
    21:00 +32°C° 0 mm 4 mps 684 mmHg 41%
    22:00 +30°C° 0 mm 5 mps 684 mmHg 47%
    23:00 +29°C° 0 mm 5 mps 684 mmHg 53%

    24 Abril, Miércoles

    Tiempo Temperatura Precipitaciones Viento Presión Humedad
    00:00 +28°C° 0 mm 4 mps 684 mmHg 56%
    01:00 +28°C° 0 mm 4 mps 683 mmHg 59%
    02:00 +27°C° 0 mm 3 mps 682 mmHg 62%
    03:00 +27°C° 0 mm 2 mps 682 mmHg 64%
    04:00 +27°C° 0 mm 2 mps 682 mmHg 66%
    05:00 +26°C° 0 mm 2 mps 682 mmHg 68%
    06:00 +27°C° 0 mm 2 mps 683 mmHg 63%
    07:00 +28°C° 0 mm 2 mps 684 mmHg 58%
    08:00 +29°C° 0 mm 2 mps 685 mmHg 54%
    09:00 +31°C° 0 mm 2 mps 685 mmHg 44%
    10:00 +34°C° 0 mm 3 mps 685 mmHg 34%
    11:00 +36°C° 0 mm 4 mps 685 mmHg 24%
    12:00 +37°C° 0 mm 4 mps 684 mmHg 22%
    13:00 +37°C° 0 mm 5 mps 683 mmHg 20%
    14:00 +39°C° 0 mm 5 mps 683 mmHg 17%
    15:00 +39°C° 0 mm 5 mps 682 mmHg 18%
    16:00 +37°C° 0 mm 5 mps 682 mmHg 20%
    17:00 +36°C° 0 mm 6 mps 682 mmHg 21%
    18:00 +35°C° 0 mm 5 mps 683 mmHg 23%
    19:00 +34°C° 0 mm 5 mps 683 mmHg 25%
    20:00 +33°C° 0 mm 4 mps 684 mmHg 27%
    21:00 +32°C° 0 mm 4 mps 684 mmHg 32%
    22:00 +30°C° 0 mm 4 mps 684 mmHg 37%
    23:00 +29°C° 0 mm 3 mps 684 mmHg 42%

    25 Abril, Jueves

    Tiempo Temperatura Precipitaciones Viento Presión Humedad
    00:00 +29°C° 0 mm 3 mps 683 mmHg 47%
    01:00 +28°C° 0 mm 3 mps 682 mmHg 51%
    02:00 +27°C° 0 mm 2 mps 682 mmHg 56%
    03:00 +27°C° 0 mm 2 mps 682 mmHg 58%
    04:00 +26°C° 0 mm 2 mps 682 mmHg 60%
    05:00 +26°C° 0 mm 2 mps 682 mmHg 62%
    06:00 +27°C° 0 mm 2 mps 683 mmHg 58%
    07:00 +28°C° 0 mm 2 mps 684 mmHg 54%
    08:00 +29°C° 0 mm 2 mps 685 mmHg 49%
    09:00 +31°C° 0 mm 3 mps 685 mmHg 40%
    10:00 +34°C° 0 mm 3 mps 684 mmHg 31%
    11:00 +36°C° 0 mm 3 mps 684 mmHg 22%
    12:00 +37°C° 0 mm 4 mps 684 mmHg 20%
    13:00 +38°C° 0 mm 4 mps 683 mmHg 17%
    14:00 +40°C° 0 mm 5 mps 682 mmHg 15%
    15:00 +39°C° 0 mm 5 mps 682 mmHg 16%
    16:00 +39°C° 0 mm 5 mps 682 mmHg 17%
    17:00 +37°C° 0 mm 5 mps 682 mmHg 18%
    18:00 +36°C° 0 mm 5 mps 682 mmHg 20%
    19:00 +35°C° 0 mm 4 mps 683 mmHg 23%
    20:00 +34°C° 0 mm 4 mps 683 mmHg 25%
    21:00 +33°C° 0 mm 4 mps 683 mmHg 28%
    22:00 +31°C° 0 mm 3 mps 683 mmHg 30%
    23:00 +30°C° 0 mm 3 mps 683 mmHg 33%

    26 Abril, Viernes

    Tiempo Temperatura Precipitaciones Viento Presión Humedad
    00:00 +29°C° 0 mm 3 mps 683 mmHg 38%
    01:00 +29°C° 0 mm 2 mps 682 mmHg 43%
    02:00 +28°C° 0 mm 2 mps 682 mmHg 49%
    03:00 +27°C° 0 mm 2 mps 682 mmHg 52%
    04:00 +27°C° 0 mm 2 mps 682 mmHg 56%
    05:00 +26°C° 0 mm 2 mps 682 mmHg 60%
    06:00 +27°C° 0 mm 2 mps 683 mmHg 58%
    07:00 +28°C° 0 mm 3 mps 683 mmHg 56%
    08:00 +29°C° 0 mm 3 mps 684 mmHg 54%
    09:00 +31°C° 0 mm 3 mps 684 mmHg 46%
    10:00 +34°C° 0 mm 3 mps 684 mmHg 37%
    11:00 +36°C° 0 mm 3 mps 684 mmHg 29%
    12:00 +37°C° 0 mm 3 mps 683 mmHg 25%
    13:00 +38°C° 0 mm 4 mps 683 mmHg 22%
    14:00 +40°C° 0 mm 5 mps 682 mmHg 18%
    15:00 +40°C° 0 mm 5 mps 682 mmHg 19%
    16:00 +39°C° 0 mm 5 mps 682 mmHg 19%
    17:00 +39°C° 0 mm 5 mps 682 mmHg 19%
    18:00 +37°C° 0 mm 5 mps 682 mmHg 21%
    19:00 +36°C° 0 mm 5 mps 683 mmHg 22%
    20:00 +34°C° 0 mm 5 mps 683 mmHg 24%
    21:00 +34°C° 0 mm 4 mps 683 mmHg 27%
    22:00 +33°C° 0 mm 4 mps 683 mmHg 30%
    23:00 +31°C° 0 mm 3 mps 683 mmHg 32%
    Mostrar más